Wind_Speed
38 38 37 37 36 34 32 31 30 29 30 31 32 33 35 38 40 39 36 32 31 30 31 31 29 28 26 25 23 22 20 18 17 17 15 13 11 9 7 5 4 4 3 3 4 4 4 5 5 5 5 5 5 5 5 5 6 6 7 7 7 8 8 9 9 10 11 12 13
38 37 37 36 35 33 31 30 30 30 30 30 31 32 35 38 40 38 35 32 31 31 31 31 29 28 27 26 24 23 21 20 19 18 16 13 11 9 7 5 4 3 3 3 4 4 4 5 5 5 5 5 5 4 5 5 6 7 7 7 8 8 8 9 10 10 11 12 13
38 37 37 36 34 32 31 30 30 30 30 31 31 33 36 39 39 37 34 32 32 32 32 31 30 29 28 27 25 24 23 22 21 18 15 13 11 8 7 5 4 3 3 3 3 4 4 4 5 5 5 5 5 5 5 6 6 7 7 8 8 9 9 9 10 11 12 12 13
38 38 37 35 33 31 30 29 29 29 29 30 32 35 38 39 38 35 33 33 34 34 33 32 31 30 29 28 26 25 23 22 20 17 14 12 10 8 7 5 4 3 2 3 3 4 4 5 5 5 5 5 6 6 6 6 7 7 7 8 8 9 9 10 11 12 12 13 14
38 37 36 34 32 30 29 28 28 28 28 30 33 36 39 40 37 34 34 35 36 35 33 33 32 31 29 28 27 25 24 21 18 16 14 12 10 8 6 5 3 2 2 3 3 4 5 5 5 5 5 6 6 6 6 7 7 8 8 8 8 9 10 11 12 12 13 14 15
38 37 35 32 30 29 28 27 27 27 28 30 33 38 40 39 36 34 34 35 34 33 32 32 31 31 30 28 27 25 23 20 17 15 13 11 9 8 6 4 3 2 2 3 4 4 5 5 5 5 5 6 6 6 6 7 8 8 9 9 9 10 10 11 12 13 14 15 16
38 36 34 31 30 29 28 27 26 27 28 30 34 37 39 38 35 33 32 31 30 30 30 31 31 31 30 28 27 24 22 19 17 15 13 11 9 7 6 4 2 1 2 3 4 5 5 5 5 5 5 5 6 6 6 7 8 8 9 10 11 11 11 12 13 14 15 16 16
36 34 32 31 29 28 27 27 27 28 29 32 35 37 37 36 33 30 29 28 29 29 30 30 31 31 30 28 26 23 20 18 17 15 12 10 8 7 5 3 2 1 2 3 4 5 5 5 5 4 5 5 6 6 6 7 8 8 9 10 11 12 12 13 14 15 16 16 17
35 33 31 30 29 28 27 26 27 28 31 33 36 37 36 34 31 28 26 27 28 29 30 31 32 31 30 27 24 22 19 18 16 14 12 10 8 6 5 3 1 0 2 3 4 5 5 5 5 5 5 5 6 6 7 7 8 8 9 10 11 12 13 14 15 16 16 17 18
34 32 31 29 28 27 27 27 28 30 32 34 36 36 34 32 28 26 25 26 28 30 31 33 33 31 29 25 23 21 19 17 15 13 11 9 8 6 4 3 1 1 2 3 4 5 5 5 5 5 5 6 6 7 7 8 8 9 10 10 11 12 14 15 16 16 17 18 18
33 31 30 29 28 28 27 28 30 32 34 35 35 35 32 30 27 25 25 27 30 32 34 34 33 30 27 24 22 20 18 16 14 13 11 9 7 6 4 2 0 1 3 4 4 5 5 5 5 5 5 6 7 7 8 8 9 9 10 11 12 13 14 15 16 17 18 18 18
31 30 29 28 28 28 29 31 32 34 35 35 34 33 30 28 26 26 27 30 33 35 35 34 31 29 26 24 22 20 18 16 14 12 10 9 7 5 4 2 1 2 3 4 4 5 5 5 5 6 6 7 7 8 8 9 10 10 11 12 13 14 15 16 17 17 18 18 18
29 28 27 28 29 30 31 33 34 35 34 34 33 31 29 27 27 28 30 33 35 36 35 33 30 27 25 23 21 19 17 15 13 12 10 8 7 5 3 2 1 2 3 4 5 5 5 5 6 6 7 7 8 9 9 10 10 11 12 13 14 15 15 16 16 17 18 18 18
26 26 27 29 31 32 34 34 35 34 34 32 31 30 29 28 29 31 33 35 36 36 34 31 29 26 24 22 20 18 17 15 13 11 9 8 6 4 3 2 2 3 3 4 5 5 5 6 6 7 7 8 9 9 10 10 11 12 13 14 14 15 16 16 17 17 18 18 18
25 26 28 31 33 35 35 35 35 34 33 32 32 31 30 30 31 33 35 36 36 35 33 30 28 26 23 21 19 17 16 14 12 10 9 7 6 4 3 2 2 3 4 4 5 5 6 6 6 7 8 8 9 10 10 11 12 12 13 14 15 15 16 16 17 17 18 18 19
26 28 31 34 35 36 36 36 35 34 33 32 32 31 31 32 34 35 36 36 35 33 31 29 27 25 23 21 18 17 15 13 11 10 8 7 5 4 2 2 2 3 4 5 5 6 6 6 7 7 8 8 9 10 11 12 12 13 14 15 15 16 16 17 17 18 18 19 19
29 31 34 36 37 37 37 36 35 34 33 32 31 31 32 35 36 37 37 36 35 33 30 28 26 24 22 20 18 16 14 12 11 9 8 6 5 3 2 2 3 4 5 5 6 6 7 7 7 8 8 9 9 10 11 12 13 14 15 15 16 16 17 17 18 18 19 19 19
32 34 36 37 37 37 37 36 34 33 32 31 30 31 35 37 38 38 37 35 33 31 29 27 25 23 21 19 17 15 13 12 10 9 7 6 4 3 2 3 4 4 5 6 6 7 7 8 8 8 9 9 10 11 12 13 13 14 15 16 16 17 17 18 18 19 19 20 20
35 36 36 37 37 37 36 35 34 32 31 29 30 34 38 39 39 38 37 34 32 29 27 26 23 21 19 18 16 15 13 11 9 8 7 5 4 3 3 3 4 5 6 7 7 8 8 8 9 9 10 10 11 12 13 13 14 15 16 16 17 17 18 18 19 19 20 20 20
36 36 36 37 37 36 35 34 33 31 30 30 33 37 39 39 38 37 35 33 30 27 25 23 22 20 18 17 15 14 12 10 9 8 6 5 4 3 3 4 5 6 7 7 8 8 9 9 9 10 10 11 12 12 13 14 15 16 16 17 17 18 18 19 19 19 20 20 20
35 35 36 36 36 36 35 33 32 31 30 32 36 39 39 39 38 36 33 30 28 26 24 22 20 19 18 16 14 13 11 10 8 7 6 4 3 3 3 4 5 6 7 7 8 8 9 9 10 10 11 11 12 13 14 15 16 16 17 17 18 18 19 19 19 19 20 20 20
35 35 36 36 35 35 33 32 31 31 32 35 38 39 39 38 36 34 31 28 26 24 23 21 19 18 16 15 13 12 10 9 8 6 5 4 3 3 4 5 6 6 7 7 8 8 9 9 10 10 11 12 13 14 14 15 16 16 17 17 18 18 19 19 19 19 19 19 19
34 35 35 35 34 33 32 31 31 32 34 37 39 39 38 36 34 32 29 27 26 24 22 20 18 17 15 14 12 11 10 8 7 6 5 3 3 4 5 5 6 6 7 7 8 9 9 10 10 11 12 12 13 14 15 15 16 16 17 17 18 18 18 19 19 19 19 19 19
34 35 34 34 33 32 31 31 31 33 36 38 39 38 37 35 32 30 29 27 25 23 22 20 18 16 15 13 12 10 9 8 6 5 4 4 4 4 5 6 6 6 7 8 8 9 9 10 11 11 12 13 14 14 15 16 16 17 17 18 18 19 19 19 18 18 18 18 18
34 34 34 33 32 31 31 32 34 36 37 38 38 37 35 33 31 30 28 27 25 23 21 19 17 16 14 13 11 10 8 7 5 4 3 4 4 5 5 6 6 7 7 8 9 9 10 10 11 12 13 13 14 15 15 16 16 17 17 18 18 19 19 19 18 17 17 17 17
33 33 33 33 32 32 32 34 36 38 38 38 37 36 34 32 30 29 28 26 24 22 20 18 16 15 13 12 11 9 8 6 4 3 3 4 4 5 5 5 6 7 8 9 9 10 10 11 12 12 13 14 15 15 16 17 17 17 18 18 19 19 19 19 18 17 16 16 17
32 32 32 32 33 33 35 37 38 39 39 38 36 34 33 31 30 28 26 25 23 21 19 17 15 14 13 11 10 8 7 5 4 3 3 4 5 5 5 6 6 7 8 9 10 10 11 12 12 13 14 15 16 16 17 17 18 18 19 19 20 20 19 18 17 16 16 16 17
31 32 32 33 34 36 37 39 39 39 39 37 35 34 32 30 29 27 25 23 21 19 18 16 15 13 12 10 9 7 5 4 3 3 3 4 5 6 6 7 7 8 9 10 10 11 12 12 13 14 15 16 17 17 18 18 18 19 19 20 20 20 18 17 16 15 15 16 18
31 32 33 35 36 38 39 39 40 39 38 36 35 33 31 29 27 25 23 22 20 18 17 15 14 12 11 9 7 6 4 3 3 3 4 5 6 7 8 8 8 9 9 10 11 11 12 13 14 15 16 17 17 18 18 19 19 19 20 20 20 19 18 16 14 14 15 17 18
31 33 35 36 38 39 39 40 40 39 37 36 34 32 30 28 26 24 22 20 18 17 15 14 12 11 9 8 6 4 3 2 3 3 5 6 7 8 9 9 8 9 10 11 11 12 13 14 15 16 16 17 18 18 19 19 20 20 21 21 20 19 17 15 14 14 15 17 18
33 35 36 38 39 39 39 39 39 38 36 34 32 30 28 26 24 22 20 19 17 16 14 13 11 10 8 7 5 3 2 2 3 4 6 7 8 9 9 9 9 9 10 11 12 13 14 15 15 16 17 18 18 19 19 20 20 21 21 21 20 18 16 14 13 14 15 17 18
35 36 38 38 39 39 39 39 38 36 34 32 30 28 26 24 23 21 19 17 16 15 13 12 10 9 7 5 4 3 2 3 4 5 6 7 8 9 10 10 9 9 10 11 12 13 14 15 16 17 18 18 19 19 20 20 21 21 21 20 19 17 14 13 13 14 15 17 18
37 38 38 39 39 39 38 37 36 34 32 31 29 27 25 23 21 19 18 16 15 14 12 11 9 7 6 4 3 3 3 4 5 6 7 8 8 9 10 10 10 10 11 12 13 14 15 16 17 18 18 19 19 20 20 21 21 21 21 20 18 15 13 12 12 14 15 17 17
38 38 38 39 38 38 37 36 34 32 31 29 27 25 23 21 19 18 17 16 14 13 11 9 7 6 4 3 3 3 4 5 6 6 7 7 8 8 10 11 11 11 12 13 14 15 16 17 18 18 19 19 20 20 21 21 21 21 20 19 16 14 12 12 12 13 14 15 16
38 38 38 38 38 37 36 34 32 30 28 27 25 23 21 19 17 16 15 14 13 11 9 7 5 4 3 3 3 4 5 6 6 6 6 7 7 8 10 11 12 13 13 14 14 16 17 17 18 19 19 20 20 21 21 21 21 21 20 18 15 13 11 11 11 12 13 13 15
37 38 38 37 36 35 34 32 29 27 25 24 22 20 19 17 16 14 13 12 11 9 7 6 4 3 2 3 4 4 5 5 6 6 6 7 7 9 10 12 13 14 14 15 15 16 17 18 19 20 20 21 21 21 21 21 21 20 19 17 14 11 10 9 10 11 12 13 15
36 36 37 36 35 33 31 29 26 24 22 21 19 18 17 16 14 13 12 10 9 7 6 4 3 3 3 4 4 5 5 6 6 6 6 7 8 9 10 12 14 15 16 16 16 17 18 18 19 20 21 21 21 21 21 21 20 19 18 15 12 10 8 9 10 11 13 14 16
36 36 35 34 33 30 28 26 23 22 20 19 18 16 15 14 13 12 10 9 7 5 4 3 3 3 4 4 5 5 5 6 6 6 6 7 8 9 10 12 14 15 16 17 17 18 18 19 20 20 21 21 21 21 20 20 19 18 16 14 11 8 8 9 11 13 15 16 18
35 34 33 31 29 27 25 23 21 20 19 18 16 15 14 13 12 11 9 7 5 4 3 3 3 3 4 4 4 5 5 5 6 6 7 8 9 10 11 12 14 15 16 17 18 18 19 19 20 20 21 21 21 20 20 19 18 17 15 13 11 9 9 11 13 15 16 18 19
34 32 30 28 26 24 22 21 20 18 17 16 15 14 13 12 10 9 7 5 4 4 3 3 3 3 3 4 4 4 4 5 6 7 8 9 10 11 12 13 14 15 16 17 17 18 19 20 20 20 20 20 20 19 19 18 17 15 13 12 11 11 12 14 15 17 18 20 20
32 30 28 26 23 21 20 19 18 17 16 15 14 13 12 10 9 7 5 4 4 3 3 3 3 3 3 4 4 5 5 6 7 8 9 10 11 12 13 14 14 15 16 17 17 18 19 19 19 20 19 19 19 18 18 17 16 14 13 12 13 14 15 16 18 19 19 19 17
Wind_Direction
216 219 220 221 220 219 218 218 219 219 218 218 216 214 210 206 201 197 196 197 198 191 182 177 176 177 180 183 184 184 186 191 197 198 193 182 173 165 156 142 126 106 85 64 48 38 28 17 8 0 353 348 342 333 325 319 315 312 310 309 309 310 312 313 316 318 320 322 323
216 219 220 220 219 218 217 217 217 216 216 217 217 215 210 204 198 195 194 195 193 187 181 177 175 177 180 183 186 189 193 197 199 196 187 176 168 162 153 141 124 105 80 58 43 33 24 14 4 355 347 341 334 324 314 311 310 309 309 308 309 311 313 314 315 316 317 319 320
217 219 219 218 217 217 217 216 216 215 214 214 213 210 205 200 196 194 193 192 188 182 178 175 176 178 181 184 189 192 196 197 194 188 178 170 165 159 151 139 124 104 76 51 36 27 19 10 1 350 341 332 326 317 310 310 310 309 308 308 311 313 314 313 313 314 315 317 319
217 218 217 216 217 217 218 217 216 215 214 212 210 205 200 196 194 193 191 187 182 177 175 176 177 180 183 186 189 191 192 190 185 178 171 166 162 157 149 139 125 103 71 42 27 18 12 4 357 347 337 329 323 319 316 315 313 311 309 309 310 311 312 311 312 313 315 317 318
216 216 216 216 217 218 219 219 217 215 214 212 208 202 197 194 193 192 190 184 179 176 176 176 178 180 184 186 188 188 186 182 176 171 167 164 160 155 148 140 126 101 60 31 17 10 4 358 352 344 336 329 325 322 320 319 316 312 309 309 309 309 309 310 311 313 316 318 319
214 213 213 214 215 217 217 218 217 216 214 211 206 201 196 195 195 194 190 186 182 180 178 177 178 180 183 184 184 183 180 175 170 167 164 162 160 155 149 140 128 96 44 16 8 3 359 355 348 340 333 328 324 321 319 317 313 310 309 308 309 309 310 311 313 315 317 318 319
212 210 210 212 214 215 215 214 214 213 212 209 204 200 197 197 197 195 194 195 191 185 180 177 178 179 181 182 181 179 175 171 167 165 164 162 160 155 150 141 130 94 26 5 358 357 355 351 344 335 326 322 318 315 312 311 309 307 307 308 310 311 313 313 314 316 318 318 319
209 209 209 211 212 213 213 213 212 210 208 204 200 199 198 198 196 194 196 201 197 189 181 176 176 179 180 181 180 176 172 168 166 165 164 163 160 156 151 145 135 84 7 356 352 350 348 344 338 329 320 315 312 310 308 307 306 305 305 307 310 312 314 314 316 316 317 318 320
204 206 208 209 211 211 212 213 212 208 203 198 197 197 197 196 194 196 202 205 198 188 179 174 176 179 181 181 178 174 170 167 166 165 165 164 161 158 155 152 142 37 348 347 347 344 341 337 333 325 317 314 310 309 308 306 305 303 304 305 308 311 313 314 315 316 318 320 322
202 204 205 206 207 209 211 210 208 203 198 194 194 195 195 194 196 202 206 202 190 179 174 173 176 179 180 179 175 172 169 167 166 166 165 164 162 160 158 158 159 334 336 338 341 340 337 334 328 322 316 313 310 309 308 307 305 303 304 305 307 310 312 314 315 317 320 322 323
203 203 203 204 205 207 207 204 199 194 192 192 193 194 195 196 200 203 200 189 178 172 171 174 178 179 179 176 172 169 168 167 167 167 166 164 163 163 163 168 211 321 330 332 335 336 333 330 324 318 312 310 310 309 308 307 305 305 306 307 309 311 313 314 317 319 322 323 323
203 203 203 203 204 204 201 195 190 188 189 191 194 196 197 198 200 196 187 176 171 170 172 176 178 179 176 173 170 168 168 168 168 168 166 165 165 167 171 185 258 315 325 329 332 332 330 325 321 316 311 310 309 309 309 308 308 310 311 312 313 314 316 317 319 321 322 322 321
202 201 201 201 201 198 193 188 185 185 187 191 194 196 197 196 193 185 176 170 170 171 173 176 177 176 174 171 170 169 168 169 168 168 168 167 168 172 182 204 273 311 322 326 328 328 326 322 318 315 312 310 310 310 310 311 312 313 314 314 315 316 318 319 320 321 321 321 319
200 200 199 199 196 192 187 183 182 184 187 190 193 194 194 190 183 176 171 170 171 173 174 174 174 173 172 171 170 170 169 169 169 169 169 171 174 180 193 228 282 310 319 323 325 325 322 318 315 313 311 310 309 310 311 312 312 313 313 314 315 317 319 320 320 320 319 318 318
198 198 197 195 191 186 183 181 182 185 187 189 191 192 189 183 176 172 171 172 173 174 174 173 171 171 170 171 170 170 170 170 170 171 172 175 180 189 208 248 290 310 318 321 322 321 318 314 312 310 309 308 307 308 309 310 310 311 312 313 315 317 319 320 320 319 318 317 317
194 194 193 189 186 183 182 182 184 186 188 189 191 190 185 177 172 171 172 173 174 174 173 172 170 169 169 170 170 170 170 171 172 174 176 180 186 198 222 264 294 310 317 320 318 317 315 313 310 308 307 305 305 305 306 308 309 310 311 314 316 318 319 320 320 319 318 318 317
191 189 187 184 183 182 183 184 186 188 190 192 192 187 179 173 170 171 173 174 174 173 172 171 170 170 170 170 171 171 172 172 174 177 180 185 193 207 236 272 296 309 315 317 315 313 311 309 308 306 304 303 303 303 304 306 308 310 312 315 318 320 320 320 320 319 318 318 318
186 184 182 181 182 184 186 187 189 192 194 194 189 181 174 170 169 171 174 175 174 173 171 170 171 171 171 170 171 172 173 175 177 180 184 190 199 218 249 280 299 311 314 315 313 311 308 306 305 304 303 303 302 303 305 306 309 312 315 317 319 320 320 319 319 318 318 318 317
181 180 180 181 184 186 189 191 193 195 195 191 183 175 170 168 169 171 173 174 174 173 172 171 172 172 172 171 171 172 175 178 181 184 189 194 206 228 259 287 304 310 314 314 313 311 309 307 305 304 304 304 305 306 308 310 313 315 317 319 320 320 319 318 317 317 316 316 316
178 177 179 183 186 189 191 193 195 194 191 183 175 170 167 167 169 171 172 173 173 173 173 173 173 172 171 172 172 174 177 181 184 188 192 200 214 238 269 293 304 310 312 312 311 309 307 306 305 305 305 306 308 310 312 315 317 318 319 320 320 319 318 317 316 315 314 314 314
176 178 182 185 188 190 192 194 194 190 182 174 169 166 166 167 169 171 172 171 171 172 174 174 174 172 172 173 175 177 179 183 186 190 196 208 225 254 279 297 305 309 310 309 308 306 304 303 303 304 306 308 310 313 315 317 319 320 320 319 318 317 316 315 314 313 312 311 311
176 180 184 187 189 191 192 192 189 182 174 168 165 165 166 167 169 170 170 170 171 172 174 174 174 173 174 175 177 180 182 184 188 192 201 218 241 269 288 299 306 308 307 305 304 303 303 302 304 305 308 311 313 315 317 318 319 319 318 317 316 315 314 312 311 310 309 308 308
178 182 185 187 189 190 189 187 181 174 168 165 164 165 167 168 169 169 170 170 172 173 173 173 173 174 175 177 180 182 185 187 190 196 208 230 257 279 294 302 306 305 303 300 300 301 302 303 306 308 310 313 315 316 318 318 318 317 315 314 314 313 311 310 308 307 306 306 307
180 183 185 186 187 186 184 180 173 168 165 164 165 167 168 168 169 169 170 171 173 173 173 173 173 174 176 178 181 185 187 189 194 204 221 244 267 285 297 304 306 303 300 300 301 302 303 305 308 310 313 315 316 316 317 316 315 314 313 312 311 311 311 310 308 306 306 306 306
181 183 184 184 184 182 179 173 168 165 165 166 167 168 168 169 169 170 172 173 173 173 173 173 174 176 178 181 183 185 187 191 199 216 240 262 277 290 299 304 303 301 300 300 302 304 305 308 310 312 313 314 315 315 315 314 314 312 311 311 311 312 312 312 311 309 308 307 307
181 182 183 182 181 178 173 168 165 165 166 168 168 169 169 170 171 173 174 174 174 173 174 175 176 179 181 183 184 184 187 192 206 228 258 276 286 294 300 303 301 300 300 301 303 305 307 310 311 312 313 314 314 315 315 314 314 313 312 312 313 313 314 314 313 312 310 308 306
180 180 180 180 177 172 168 165 165 166 168 169 170 170 171 172 174 175 176 175 174 174 175 177 179 181 182 183 183 184 187 195 212 239 266 282 291 297 301 302 300 300 300 302 305 307 310 312 313 314 314 315 315 315 315 315 314 314 314 314 315 316 316 316 315 313 309 305 302
178 177 177 175 171 167 165 164 166 168 169 170 171 172 173 175 176 176 176 175 175 175 177 179 180 181 181 181 182 184 190 202 224 252 275 289 294 298 300 302 301 301 303 306 308 311 312 314 315 315 316 316 317 317 316 316 315 315 315 316 317 318 318 317 315 310 304 300 298
175 175 173 171 167 165 164 165 168 169 170 171 173 174 175 176 176 176 175 175 176 177 178 179 180 181 181 181 183 187 196 212 239 266 285 294 297 299 301 303 304 305 307 310 312 314 315 316 316 317 317 317 318 317 317 316 316 316 317 318 319 319 319 317 312 305 300 297 297
173 172 169 167 165 164 165 167 169 171 172 173 174 175 175 175 175 174 174 175 176 177 178 179 179 179 180 183 186 192 206 228 257 280 291 296 297 299 301 304 308 310 312 313 315 316 316 317 317 318 318 318 317 317 317 316 317 318 319 319 320 320 320 317 310 303 298 297 297
171 169 167 165 164 165 167 169 171 171 172 173 174 174 174 173 173 173 174 175 175 177 177 178 178 180 183 187 192 203 224 257 278 289 294 296 298 299 302 306 310 313 315 315 316 317 317 318 318 318 318 318 317 317 317 317 318 319 320 320 321 321 320 316 309 301 297 296 296
168 166 165 165 165 167 168 170 171 172 172 172 173 173 172 172 172 173 174 175 177 177 177 178 180 183 188 194 203 222 254 279 287 293 295 298 300 302 304 308 311 315 317 317 318 318 319 319 319 319 318 317 316 316 317 317 318 319 320 320 321 320 318 312 303 296 293 293 294
165 165 165 166 167 168 169 170 170 171 171 171 171 171 172 172 172 173 174 176 177 177 178 179 182 186 191 198 211 241 270 286 291 295 299 302 305 306 307 309 313 317 320 320 320 321 320 320 319 318 317 316 316 316 317 318 319 320 320 321 320 318 313 304 295 291 291 292 293
163 164 165 167 168 168 169 169 170 170 170 170 170 170 171 172 173 174 175 175 176 177 178 180 182 186 194 209 235 264 281 290 295 300 304 308 310 310 310 312 316 320 322 323 323 322 321 319 318 317 316 316 316 317 318 319 319 320 321 320 319 314 306 298 292 290 292 293 293
162 164 166 167 168 168 168 168 168 169 169 168 168 169 170 172 174 174 175 175 175 176 177 179 182 190 210 241 266 278 287 294 300 307 311 311 312 312 314 316 318 321 323 325 323 322 320 318 316 316 315 316 317 318 318 319 320 320 320 319 317 311 302 296 293 293 294 292 289
162 164 166 167 167 167 167 167 167 167 167 168 168 168 170 171 172 172 173 173 175 177 178 182 189 206 237 259 274 283 291 300 308 312 312 312 314 317 319 319 321 322 324 324 323 321 318 317 315 315 315 316 318 319 319 320 320 320 319 318 315 309 302 297 294 292 288 284 280
162 164 165 165 166 166 166 166 166 167 168 168 168 169 169 170 170 170 171 173 175 178 184 192 208 233 253 267 278 290 300 308 312 313 312 314 319 322 323 323 322 322 323 322 321 319 317 315 315 315 317 318 319 320 320 320 320 320 318 316 313 307 301 296 290 285 279 275 273
162 164 165 165 165 166 166 167 168 168 168 168 168 169 170 171 171 170 171 172 176 183 194 214 232 250 266 280 292 303 311 314 314 314 316 320 323 325 325 323 321 320 320 319 318 317 316 316 317 317 318 320 320 321 321 320 319 319 317 314 309 301 292 288 283 279 276 274 273
164 166 167 168 168 168 168 168 168 168 168 168 168 169 171 173 172 172 171 173 180 195 214 231 245 263 279 295 306 313 316 316 316 318 321 323 324 324 323 321 319 318 317 317 317 317 318 319 319 320 320 321 321 321 320 320 319 317 315 312 305 292 279 277 278 277 277 278 279
166 168 170 170 171 170 168 165 164 165 168 169 171 172 173 172 172 172 174 180 193 210 227 241 258 277 295 309 312 312 310 312 316 320 322 323 322 321 320 318 316 315 315 317 318 319 321 322 322 322 321 321 321 321 320 320 318 316 312 307 300 290 282 278 279 279 281 283 285
165 168 170 171 170 168 165 163 163 165 168 171 172 172 171 171 172 174 182 192 203 216 232 254 278 297 309 313 310 308 309 312 316 319 320 320 319 318 317 316 315 315 316 318 321 323 324 324 323 322 321 321 321 321 321 320 318 314 308 302 297 294 291 290 289 289 290 291 294
Height
1443 1445 1446 1448 1449 1450 1452 1454 1455 1456 1457 1458 1459 1460 1463 1465 1468 1469 1471 1473 1475 1478 1480 1482 1483 1485 1487 1490 1490 1491 1492 1493 1494 1496 1498 1498 1498 1498 1498 1498 1499 1499 1499 1500 1500 1500 1500 1500 1500 1500 1500 1500 1500 1500 1500 1499 1499 1499 1499 1499 1499 1499 1498 1498 1498 1497 1497 1497 1496
1442 1444 1445 1446 1448 1450 1451 1453 1454 1455 1456 1457 1459 1460 1462 1465 1467 1468 1470 1472 1475 1476 1479 1480 1482 1484 1486 1488 1489 1490 1491 1492 1494 1496 1497 1497 1497 1497 1497 1498 1498 1498 1499 1499 1500 1500 1500 1500 1499 1499 1499 1499 1499 1499 1499 1499 1499 1498 1498 1498 1498 1498 1497 1497 1497 1497 1497 1496 1496
1441 1442 1444 1445 1447 1448 1450 1451 1452 1454 1455 1456 1458 1460 1462 1464 1466 1467 1469 1471 1473 1475 1477 1479 1481 1484 1485 1487 1488 1489 1490 1492 1494 1495 1495 1496 1496 1496 1496 1497 1497 1498 1498 1498 1499 1499 1499 1499 1499 1499 1498 1498 1498 1498 1498 1498 1498 1498 1497 1497 1497 1497 1497 1496 1496 1496 1496 1495 1495
1439 1440 1442 1444 1445 1447 1449 1450 1451 1453 1454 1455 1457 1459 1461 1463 1465 1466 1468 1470 1472 1474 1477 1479 1481 1483 1484 1485 1487 1488 1490 1491 1493 1494 1494 1495 1495 1495 1496 1496 1496 1497 1497 1498 1498 1498 1498 1498 1498 1498 1498 1498 1497 1497 1497 1497 1497 1497 1497 1496 1496 1496 1496 1496 1495 1495 1495 1495 1494
1438 1439 1441 1443 1445 1447 1448 1450 1451 1452 1454 1455 1456 1458 1460 1462 1463 1465 1467 1469 1471 1474 1476 1479 1480 1482 1483 1485 1486 1487 1489 1490 1491 1492 1493 1494 1494 1495 1495 1495 1496 1496 1497 1497 1497 1497 1497 1497 1497 1497 1497 1497 1496 1496 1496 1496 1496 1496 1495 1495 1495 1495 1495 1495 1495 1495 1494 1494 1493
1436 1438 1440 1443 1445 1446 1448 1449 1450 1451 1453 1454 1455 1457 1459 1460 1462 1464 1466 1468 1470 1473 1476 1478 1480 1481 1483 1484 1485 1487 1488 1489 1490 1491 1492 1493 1493 1494 1494 1495 1495 1496 1496 1496 1496 1496 1496 1496 1496 1496 1496 1496 1496 1495 1495 1495 1495 1495 1495 1495 1495 1495 1494 1494 1494 1493 1493 1493 1492
1435 1437 1440 1442 1444 1445 1447 1448 1450 1451 1452 1453 1454 1456 1457 1459 1461 1463 1466 1468 1471 1473 1475 1477 1479 1480 1482 1484 1485 1486 1487 1488 1489 1490 1491 1492 1493 1493 1494 1494 1495 1495 1495 1495 1495 1495 1495 1495 1495 1495 1495 1495 1495 1495 1495 1495 1494 1494 1494 1494 1493 1493 1493 1493 1493 1492 1492 1491 1491
1435 1437 1439 1441 1443 1445 1446 1448 1449 1450 1451 1452 1454 1455 1457 1459 1461 1463 1466 1468 1470 1472 1473 1475 1478 1480 1482 1484 1485 1485 1486 1487 1488 1489 1490 1491 1492 1492 1493 1494 1494 1495 1495 1495 1495 1495 1495 1495 1495 1495 1495 1495 1494 1494 1494 1494 1494 1493 1493 1493 1492 1492 1492 1492 1492 1491 1491 1490 1490
1434 1436 1438 1440 1442 1444 1445 1447 1448 1449 1450 1451 1453 1455 1456 1459 1461 1463 1465 1467 1469 1471 1472 1475 1477 1480 1482 1483 1484 1485 1485 1486 1487 1489 1490 1490 1491 1492 1492 1493 1493 1494 1494 1494 1494 1494 1494 1494 1494 1494 1494 1494 1494 1493 1493 1493 1493 1492 1492 1492 1492 1491 1491 1491 1490 1490 1490 1489 1489
1433 1435 1437 1440 1441 1443 1445 1446 1447 1449 1450 1451 1452 1454 1456 1458 1460 1462 1464 1466 1468 1470 1471 1474 1477 1479 1481 1482 1483 1484 1485 1486 1487 1488 1489 1490 1490 1491 1492 1492 1493 1493 1493 1493 1493 1493 1493 1493 1493 1493 1493 1493 1493 1492 1492 1492 1492 1492 1491 1491 1491 1490 1490 1490 1490 1489 1488 1488 1487
1432 1434 1436 1439 1440 1442 1444 1445 1447 1448 1449 1450 1452 1454 1455 1458 1460 1461 1463 1465 1467 1469 1471 1474 1476 1478 1480 1481 1482 1483 1484 1485 1486 1487 1488 1489 1490 1490 1491 1491 1492 1492 1492 1492 1492 1492 1492 1492 1492 1492 1492 1492 1492 1491 1491 1491 1491 1490 1490 1490 1490 1490 1489 1489 1488 1488 1487 1487 1486
1431 1434 1436 1438 1440 1441 1443 1444 1446 1447 1448 1450 1451 1453 1455 1457 1459 1460 1462 1464 1466 1469 1471 1474 1476 1477 1479 1480 1481 1482 1483 1484 1485 1486 1487 1488 1489 1490 1490 1490 1491 1491 1491 1491 1491 1491 1491 1491 1491 1491 1491 1491 1490 1490 1490 1490 1490 1490 1489 1489 1489 1489 1488 1488 1487 1486 1486 1485 1485
1431 1433 1435 1437 1439 1440 1442 1443 1445 1446 1447 1449 1450 1452 1454 1456 1458 1460 1462 1464 1466 1468 1471 1473 1475 1477 1478 1479 1480 1481 1482 1484 1485 1485 1486 1487 1488 1489 1489 1490 1490 1490 1490 1490 1490 1490 1490 1490 1490 1490 1490 1490 1490 1489 1489 1489 1489 1488 1488 1488 1488 1487 1487 1486 1486 1485 1485 1485 1484
1431 1433 1435 1436 1438 1440 1441 1443 1444 1445 1447 1448 1450 1451 1453 1455 1457 1460 1462 1464 1466 1468 1470 1472 1475 1476 1477 1479 1480 1481 1482 1483 1484 1485 1485 1486 1487 1488 1488 1489 1489 1489 1489 1489 1489 1489 1489 1489 1489 1489 1489 1489 1489 1488 1488 1488 1488 1487 1487 1487 1487 1486 1486 1485 1485 1485 1484 1484 1483
1430 1432 1434 1435 1437 1439 1440 1441 1443 1445 1446 1448 1449 1450 1452 1455 1457 1460 1463 1465 1467 1469 1470 1472 1474 1475 1477 1478 1479 1480 1481 1482 1483 1484 1485 1485 1486 1487 1487 1488 1488 1488 1488 1488 1488 1489 1489 1489 1489 1488 1488 1488 1488 1487 1487 1487 1487 1486 1486 1486 1486 1485 1485 1485 1484 1484 1483 1482 1482
1430 1431 1433 1435 1436 1438 1439 1440 1442 1444 1445 1447 1448 1450 1452 1455 1458 1461 1463 1465 1467 1469 1470 1472 1473 1475 1476 1477 1478 1479 1480 1481 1482 1483 1484 1485 1485 1486 1486 1487 1487 1487 1487 1487 1488 1488 1488 1488 1488 1487 1487 1487 1487 1486 1486 1486 1486 1485 1485 1485 1485 1484 1484 1483 1483 1482 1482 1481 1481
1429 1430 1432 1434 1435 1436 1438 1439 1441 1443 1444 1445 1447 1450 1452 1455 1458 1461 1463 1465 1467 1469 1470 1471 1473 1474 1475 1476 1478 1479 1480 1480 1481 1482 1483 1484 1484 1485 1485 1485 1486 1486 1486 1487 1487 1487 1487 1487 1487 1486 1486 1486 1486 1486 1485 1485 1485 1485 1484 1484 1484 1483 1483 1482 1482 1481 1481 1480 1479
1428 1430 1431 1433 1434 1435 1437 1439 1440 1441 1443 1445 1447 1449 1452 1455 1458 1461 1463 1465 1467 1468 1470 1471 1472 1473 1475 1475 1477 1478 1479 1480 1481 1481 1482 1483 1484 1484 1484 1485 1485 1485 1485 1486 1486 1486 1486 1486 1486 1486 1485 1485 1485 1485 1485 1485 1484 1484 1483 1483 1483 1482 1482 1481 1480 1480 1479 1479 1478
1427 1429 1431 1432 1433 1435 1436 1438 1439 1441 1442 1444 1447 1449 1452 1455 1458 1460 1463 1465 1467 1468 1470 1470 1472 1473 1474 1475 1476 1477 1478 1479 1480 1481 1481 1482 1483 1483 1484 1484 1484 1484 1485 1485 1485 1485 1485 1485 1485 1485 1485 1484 1484 1484 1484 1484 1483 1483 1482 1482 1481 1481 1480 1480 1479 1479 1478 1477 1476
1427 1429 1430 1431 1432 1434 1436 1437 1439 1440 1442 1444 1447 1449 1452 1455 1458 1460 1463 1465 1467 1468 1470 1470 1471 1473 1474 1475 1475 1477 1478 1479 1480 1480 1481 1481 1482 1482 1483 1483 1483 1483 1484 1484 1484 1484 1484 1484 1484 1484 1484 1483 1483 1483 1483 1482 1482 1481 1481 1481 1480 1480 1479 1479 1478 1477 1476 1476 1475
1427 1428 1429 1430 1432 1434 1435 1437 1439 1440 1442 1445 1447 1450 1452 1455 1458 1461 1463 1465 1466 1468 1469 1470 1471 1472 1473 1474 1475 1476 1477 1478 1479 1480 1480 1481 1481 1482 1482 1482 1482 1483 1483 1483 1483 1483 1483 1483 1483 1483 1483 1482 1482 1482 1482 1481 1481 1480 1480 1480 1479 1479 1478 1477 1477 1476 1475 1475 1474
1426 1428 1429 1431 1432 1434 1436 1437 1439 1441 1443 1445 1448 1450 1453 1456 1459 1461 1463 1465 1466 1467 1469 1470 1471 1472 1473 1474 1475 1475 1477 1478 1478 1479 1480 1480 1480 1481 1481 1481 1482 1482 1482 1482 1482 1482 1482 1482 1482 1482 1482 1481 1481 1481 1480 1480 1480 1479 1479 1478 1478 1477 1477 1476 1475 1475 1474 1473 1472
1426 1427 1429 1431 1433 1435 1436 1438 1440 1443 1445 1447 1449 1452 1454 1457 1459 1461 1463 1464 1466 1467 1468 1469 1470 1471 1472 1473 1474 1475 1476 1477 1478 1479 1479 1480 1480 1480 1480 1480 1481 1481 1481 1481 1481 1481 1481 1481 1481 1481 1481 1480 1480 1480 1480 1479 1479 1478 1478 1477 1477 1476 1475 1475 1474 1473 1473 1472 1471
1426 1427 1429 1431 1433 1435 1437 1440 1442 1444 1446 1448 1450 1453 1455 1457 1459 1461 1462 1464 1465 1466 1467 1469 1470 1471 1472 1473 1474 1475 1476 1477 1477 1478 1478 1479 1479 1479 1480 1480 1480 1480 1480 1480 1480 1480 1480 1480 1480 1480 1480 1480 1479 1479 1479 1478 1478 1477 1477 1476 1476 1475 1474 1474 1473 1472 1471 1470 1470
1426 1427 1429 1431 1433 1435 1438 1440 1443 1445 1447 1449 1451 1454 1455 1457 1459 1460 1462 1463 1465 1466 1467 1468 1470 1471 1472 1473 1474 1475 1476 1476 1477 1477 1478 1478 1478 1479 1479 1479 1480 1480 1480 1480 1480 1480 1480 1480 1480 1479 1479 1479 1479 1478 1478 1477 1477 1476 1476 1475 1475 1474 1473 1472 1471 1470 1470 1469 1468
1426 1427 1429 1430 1432 1435 1437 1440 1443 1445 1448 1450 1452 1454 1456 1457 1459 1460 1462 1463 1464 1466 1467 1468 1469 1470 1472 1473 1474 1475 1475 1476 1476 1477 1477 1477 1478 1478 1478 1479 1479 1479 1479 1479 1479 1479 1479 1479 1479 1478 1478 1478 1478 1477 1477 1476 1476 1475 1475 1474 1473 1472 1471 1470 1470 1469 1468 1467 1467
1426 1428 1429 1430 1432 1434 1437 1440 1442 1445 1448 1450 1453 1454 1456 1457 1459 1460 1462 1463 1464 1465 1467 1468 1469 1470 1472 1473 1473 1474 1475 1475 1476 1476 1476 1477 1477 1477 1478 1478 1478 1478 1478 1478 1478 1478 1478 1478 1478 1477 1477 1477 1476 1476 1475 1475 1474 1474 1473 1472 1471 1470 1470 1468 1468 1467 1466 1466 1465
1427 1428 1430 1431 1432 1434 1437 1440 1442 1445 1448 1450 1452 1454 1456 1457 1459 1460 1462 1463 1464 1465 1467 1468 1469 1470 1471 1472 1473 1474 1474 1475 1475 1475 1476 1476 1476 1476 1477 1477 1477 1477 1477 1477 1477 1477 1477 1477 1476 1476 1476 1475 1475 1475 1474 1473 1473 1472 1471 1470 1470 1469 1468 1467 1466 1465 1465 1465 1464
1428 1430 1431 1432 1434 1435 1437 1440 1443 1445 1448 1450 1452 1454 1455 1457 1459 1460 1462 1463 1464 1465 1467 1468 1469 1470 1471 1472 1473 1473 1474 1474 1475 1475 1475 1475 1475 1475 1476 1476 1476 1476 1476 1476 1476 1476 1476 1475 1475 1475 1475 1474 1474 1473 1473 1472 1471 1470 1470 1469 1468 1467 1466 1465 1465 1464 1464 1463 1462
1429 1431 1432 1434 1435 1437 1439 1441 1444 1445 1448 1450 1452 1454 1456 1457 1459 1461 1462 1463 1464 1465 1467 1468 1469 1470 1471 1472 1472 1473 1473 1474 1474 1474 1475 1475 1475 1475 1475 1475 1476 1475 1475 1475 1475 1475 1475 1474 1474 1474 1473 1473 1472 1472 1471 1470 1470 1469 1468 1467 1466 1465 1465 1464 1463 1463 1462 1462 1461
1430 1431 1433 1435 1437 1439 1440 1443 1444 1446 1448 1450 1452 1454 1456 1458 1460 1461 1462 1463 1465 1466 1467 1468 1469 1470 1471 1471 1472 1472 1473 1473 1473 1474 1474 1474 1474 1474 1474 1475 1475 1475 1475 1474 1474 1474 1474 1473 1473 1472 1472 1471 1471 1470 1470 1469 1468 1467 1466 1465 1465 1464 1463 1462 1462 1461 1461 1460 1460
1430 1432 1434 1436 1438 1440 1442 1444 1445 1447 1449 1451 1453 1455 1456 1458 1460 1461 1462 1464 1465 1466 1467 1468 1469 1470 1470 1471 1471 1472 1472 1472 1472 1473 1473 1473 1473 1473 1473 1473 1474 1474 1474 1473 1473 1473 1472 1472 1471 1471 1471 1470 1470 1469 1468 1467 1466 1465 1465 1464 1463 1462 1461 1461 1460 1460 1460 1459 1458
1430 1432 1435 1437 1439 1441 1443 1444 1446 1448 1450 1451 1453 1455 1456 1458 1460 1461 1463 1464 1465 1466 1467 1468 1469 1469 1470 1470 1471 1471 1471 1472 1472 1472 1472 1472 1472 1472 1472 1472 1473 1473 1473 1472 1472 1471 1471 1471 1470 1470 1470 1469 1468 1467 1467 1466 1465 1464 1463 1462 1461 1460 1460 1460 1459 1459 1458 1458 1457
1430 1433 1435 1438 1440 1442 1443 1445 1447 1449 1450 1452 1454 1455 1457 1459 1460 1461 1463 1464 1465 1466 1467 1468 1468 1469 1470 1470 1470 1470 1471 1471 1471 1471 1471 1471 1471 1471 1471 1471 1471 1472 1472 1471 1471 1470 1470 1470 1469 1469 1468 1468 1467 1466 1465 1464 1463 1462 1461 1460 1460 1459 1459 1458 1458 1458 1457 1456 1456
1431 1434 1436 1439 1440 1442 1444 1446 1448 1449 1451 1453 1455 1456 1458 1459 1460 1462 1463 1464 1465 1466 1467 1468 1468 1469 1469 1469 1470 1470 1470 1470 1470 1471 1471 1471 1471 1471 1470 1470 1470 1470 1470 1470 1470 1469 1469 1468 1468 1467 1467 1466 1465 1464 1463 1462 1461 1460 1460 1459 1458 1458 1457 1457 1457 1456 1456 1455 1455
1433 1435 1437 1439 1441 1443 1445 1446 1448 1450 1452 1454 1455 1457 1459 1460 1461 1463 1464 1465 1465 1466 1467 1467 1468 1468 1469 1469 1469 1470 1470 1470 1470 1470 1470 1470 1470 1470 1470 1469 1469 1469 1469 1469 1469 1468 1468 1467 1467 1466 1465 1464 1464 1463 1462 1461 1460 1459 1458 1458 1457 1456 1456 1456 1455 1455 1455 1454 1453
1434 1436 1438 1440 1442 1443 1445 1447 1449 1451 1453 1455 1456 1458 1459 1460 1462 1463 1464 1465 1465 1466 1466 1467 1467 1468 1468 1468 1469 1469 1469 1469 1469 1470 1470 1470 1470 1469 1469 1469 1468 1468 1468 1468 1468 1467 1467 1466 1465 1465 1464 1463 1462 1461 1460 1459 1458 1457 1457 1456 1455 1455 1455 1455 1454 1454 1453 1452 1451
1434 1436 1438 1440 1442 1444 1445 1448 1450 1452 1454 1455 1457 1459 1460 1461 1462 1463 1464 1465 1465 1465 1466 1466 1467 1467 1468 1468 1468 1468 1468 1468 1469 1469 1469 1469 1469 1469 1468 1468 1467 1467 1467 1467 1467 1466 1466 1465 1464 1463 1462 1461 1460 1459 1458 1457 1457 1456 1455 1455 1454 1454 1454 1453 1453 1452 1451 1451 1450
1434 1437 1439 1441 1443 1445 1446 1449 1451 1453 1455 1456 1457 1459 1460 1461 1462 1463 1464 1464 1465 1465 1465 1466 1466 1467 1467 1467 1467 1468 1468 1468 1468 1468 1468 1468 1468 1468 1468 1467 1467 1467 1466 1466 1465 1465 1464 1463 1462 1461 1460 1459 1458 1458 1457 1456 1455 1455 1454 1453 1453 1453 1452 1451 1451 1450 1450 1449 1449
1436 1439 1441 1443 1445 1446 1448 1450 1452 1454 1455 1456 1458 1459 1460 1461 1462 1463 1463 1464 1465 1465 1465 1466 1466 1466 1466 1467 1467 1467 1467 1467 1467 1467 1467 1467 1467 1467 1467 1467 1466 1466 1465 1465 1465 1464 1463 1462 1461 1460 1459 1458 1457 1456 1455 1455 1454 1453 1453 1452 1451 1451 1450 1450 1449 1449 1448 1447 1447
1438 1440 1442 1444 1446 1448 1449 1451 1452 1454 1455 1457 1458 1459 1460 1461 1462 1462 1463 1464 1464 1465 1465 1465 1465 1465 1466 1466 1466 1466 1467 1467 1467 1467 1467 1467 1466 1466 1466 1466 1466 1465 1465 1464 1463 1462 1461 1460 1459 1458 1457 1456 1456 1455 1454 1454 1453 1452 1451 1451 1450 1450 1449 1448 1448 1447 1447 1446 1445